IBE2PC EDDM-LEBL

Flight info

Callsign IBE2PC
Flight time N/A
Altitude 40000
Route TURBU7S TURBU DCT KOLON/N0472F390 DCT GANGU DCT PADKO DCT DIVKO DCT NILDU N975 BISBA
Aircraft A346/H-SDE2E3FGHIJ3J4J5M1RWXY/LB1D1

Departure

Time 2026-05-06 09:28
Airport Munich Airport (EDDM)

Arrival

Time N/A
Airport Josep Tarradellas Barcelona-El Prat Airport (LEBL)
Time Latitude Longitude Altitude Speed Heading
2026-05-06 08:55 48.35231 11.78310 1494 ft 0 kts 83°
2026-05-06 09:11 48.35230 11.78294 1477 ft 4 kts 83°
2026-05-06 09:11 48.35227 11.78255 1481 ft 2 kts 83°
2026-05-06 09:11 48.35223 11.78224 1482 ft 4 kts 66°
2026-05-06 09:12 48.35210 11.78199 1477 ft 4 kts 33°
2026-05-06 09:12 48.35191 11.78189 1481 ft 4 kts
2026-05-06 09:12 48.35166 11.78192 1477 ft 4 kts 353°
2026-05-06 09:12 48.35140 11.78197 1477 ft 4 kts 353°
2026-05-06 09:13 48.35133 11.78198 1477 ft 0 kts 353°
2026-05-06 09:13 48.35134 11.78198 1477 ft 0 kts 353°
2026-05-06 09:16 48.35140 11.78197 1477 ft 2 kts 353°
2026-05-06 09:16 48.35165 11.78193 1477 ft 5 kts 353°
2026-05-06 09:17 48.35194 11.78188 1481 ft 7 kts 353°
2026-05-06 09:17 48.35258 11.78177 1479 ft 11 kts 353°
2026-05-06 09:17 48.35335 11.78135 1481 ft 13 kts 311°
2026-05-06 09:17 48.35345 11.77995 1482 ft 10 kts 263°
2026-05-06 09:18 48.35341 11.77953 1483 ft 0 kts 263°
2026-05-06 09:18 48.35340 11.77935 1489 ft 0 kts 263°
2026-05-06 09:19 48.35339 11.77926 1494 ft 3 kts 263°
2026-05-06 09:19 48.35334 11.77870 1494 ft 8 kts 258°
2026-05-06 09:19 48.35279 11.77801 1485 ft 14 kts 184°
2026-05-06 09:19 48.35163 11.77815 1482 ft 18 kts 174°
2026-05-06 09:20 48.35027 11.77836 1494 ft 21 kts 173°
2026-05-06 09:20 48.34890 11.77861 1485 ft 19 kts 173°
2026-05-06 09:20 48.34759 11.77885 1494 ft 16 kts 173°
2026-05-06 09:20 48.34661 11.77828 1483 ft 17 kts 250°
2026-05-06 09:21 48.34643 11.77629 1491 ft 20 kts 263°
2026-05-06 09:21 48.34626 11.77408 1483 ft 23 kts 263°
2026-05-06 09:21 48.34608 11.77163 1488 ft 24 kts 263°
2026-05-06 09:21 48.34588 11.76900 1489 ft 26 kts 263°
2026-05-06 09:22 48.34568 11.76622 1494 ft 27 kts 263°
2026-05-06 09:22 48.34542 11.76334 1490 ft 28 kts 262°
2026-05-06 09:22 48.34519 11.76034 1487 ft 29 kts 264°
2026-05-06 09:22 48.34497 11.75725 1483 ft 30 kts 263°
2026-05-06 09:23 48.34472 11.75409 1494 ft 29 kts 263°
2026-05-06 09:23 48.34457 11.75209 1494 ft 11 kts 263°
2026-05-06 09:23 48.34434 11.75092 1483 ft 12 kts 221°
2026-05-06 09:23 48.34351 11.75073 1481 ft 13 kts 176°
2026-05-06 09:24 48.34250 11.75090 1481 ft 15 kts 173°
2026-05-06 09:24 48.34219 11.75095 1486 ft 1 kts 173°
2026-05-06 09:24 48.34215 11.75096 1486 ft 0 kts 173°
2026-05-06 09:26 48.34203 11.75098 1489 ft 3 kts 173°
2026-05-06 09:26 48.34172 11.75106 1486 ft 6 kts 168°
2026-05-06 09:26 48.34120 11.75124 1481 ft 9 kts 167°
2026-05-06 09:26 48.34081 11.75137 1480 ft 1 kts 158°
2026-05-06 09:27 48.34078 11.75142 1482 ft 0 kts 127°
2026-05-06 09:27 48.34077 11.75156 1486 ft 5 kts 88°
2026-05-06 09:27 48.34094 11.75318 1484 ft 39 kts 76°
2026-05-06 09:27 48.34147 11.76123 1483 ft 113 kts 83°
2026-05-06 09:28 48.34262 11.77629 1483 ft 174 kts 83°
2026-05-06 09:28 48.34418 11.79640 1780 ft 204 kts 83°
2026-05-06 09:28 48.34593 11.81831 2454 ft 217 kts 83°
2026-05-06 09:28 48.34795 11.84160 3146 ft 233 kts 82°
2026-05-06 09:29 48.35004 11.86661 3912 ft 244 kts 85°
2026-05-06 09:29 48.35171 11.89189 4945 ft 243 kts 85°
2026-05-06 09:29 48.35346 11.91737 5898 ft 247 kts 86°
2026-05-06 09:29 48.35370 11.94327 6505 ft 249 kts 105°
2026-05-06 09:30 48.34608 11.96636 6914 ft 250 kts 135°
2026-05-06 09:30 48.33254 11.98317 7701 ft 253 kts 145°
2026-05-06 09:30 48.31877 11.99896 8730 ft 252 kts 145°
2026-05-06 09:30 48.30473 12.01496 9655 ft 254 kts 151°
2026-05-06 09:31 48.28857 12.02522 10463 ft 253 kts 171°
2026-05-06 09:31 48.27077 12.02683 11117 ft 263 kts 183°
2026-05-06 09:31 48.25199 12.02568 11673 ft 276 kts 184°
2026-05-06 09:31 48.23257 12.02432 12456 ft 281 kts 184°
2026-05-06 09:32 48.21303 12.02302 13380 ft 282 kts 184°
2026-05-06 09:32 48.19335 12.02180 14205 ft 284 kts 184°
2026-05-06 09:32 48.17349 12.02063 14989 ft 287 kts 184°
2026-05-06 09:32 48.15343 12.01947 15756 ft 290 kts 184°
2026-05-06 09:33 48.13317 12.01829 16505 ft 293 kts 184°
2026-05-06 09:33 48.11289 12.01714 17249 ft 296 kts 185°
2026-05-06 09:33 48.09220 12.01576 18000 ft 299 kts 187°
2026-05-06 09:33 48.07145 12.01214 18679 ft 301 kts 192°
2026-05-06 09:34 48.05079 12.00573 19257 ft 307 kts 196°
2026-05-06 09:34 48.02967 11.99706 19542 ft 322 kts 197°
2026-05-06 09:34 48.00763 11.98781 19831 ft 335 kts 197°
2026-05-06 09:34 47.98498 11.97830 20367 ft 340 kts 197°